FW8127 Weather Reports


time (UTC)temp
F
wind
direction
speed
knots
gust
knots
rain 1hr
in
rain 24hr
in
rain mn
in
humidity
%
barometer
mb
20260506222049 70 249 4.3 8.7 0.00 0.00 0.00 75 1008.6
20260506221556 70 316 2.6 10.4 0.00 0.00 0.00 75 1008.5
20260506221049 70 234 1.7 10.4 0.00 0.00 0.00 74 1008.5
20260506220548 70 231 3.5 10.4 0.00 0.00 0.00 73 1008.4
20260506220057 70 250 3.5 10.4 0.00 0.00 0.00 73 1008.5
20260506215549 70 244 3.5 11.3 0.00 0.00 0.00 74 1008.3
20260506215049 70 239 4.3 13.0 0.00 0.00 0.00 74 1008.6
20260506214609 70 298 4.3 13.0 0.00 0.00 0.00 74 1008.4
20260506214047 70 253 3.5 8.7 0.00 0.00 0.00 75 1008.3
20260506213548 69 291 2.6 9.6 0.00 0.00 0.00 75 1008.3
20260506213057 69 213 4.3 11.3 0.00 0.00 0.00 75 1008.4
20260506212549 69 180 3.5 11.3 0.00 0.00 0.00 76 1008.4
20260506212052 70 223 2.6 8.7 0.00 0.00 0.00 76 1008.3
20260506211556 69 255 4.3 8.7 0.00 0.00 0.00 76 1008.3
20260506211049 69 240 3.5 9.6 0.00 0.00 0.00 76 1008.5
20260506210550 70 274 3.5 9.6 0.00 0.00 0.00 76 1008.4
20260506210058 70 254 4.3 8.7 0.00 0.00 0.00 76 1008.2
20260506205549 70 298 3.5 7.8 0.00 0.00 0.00 76 1008.3
20260506205047 70 270 4.3 11.3 0.00 0.00 0.00 75 1008.2
20260506204615 70 292 3.5 11.3 0.00 0.00 0.00 75 1008.1
20260506204048 69 242 4.3 10.4 0.00 0.00 0.00 75 1008.1
20260506203545 69 237 3.5 13.0 0.00 0.00 0.00 75 1008.2
20260506203056 69 246 4.3 13.0 0.00 0.00 0.00 75 1008.2
20260506202548 69 290 1.7 13.9 0.00 0.00 0.00 76 1008.1
20260506202048 69 231 4.3 13.9 0.00 0.00 0.00 76 1008.1
20260506201556 69 257 6.1 13.9 0.00 0.00 0.00 76 1008.0
20260506201048 68 209 0.9 10.4 0.00 0.00 0.00 78 1008.1
20260506200548 68 263 4.3 10.4 0.00 0.00 0.00 78 1008.0
20260506200058 67 225 4.3 10.4 0.00 0.00 0.00 78 1008.2
20260506195545 67 180 3.5 13.9 0.00 0.00 0.00 78 1008.1
20260506195050 67 245 6.1 13.9 0.00 0.00 0.00 78 1008.5
20260506194607 67 233 4.3 13.0 0.00 0.00 0.00 78 1008.6
20260506194050 67 230 4.3 13.0 0.00 0.00 0.00 78 1008.5
20260506193548 67 295 5.2 12.2 0.00 0.00 0.00 78 1008.6
20260506193112 67 215 3.5 13.9 0.00 0.00 0.00 78 1008.7
20260506192550 67 297 5.2 13.9 0.00 0.00 0.00 78 1008.6
20260506192049 67 278 7.0 13.9 0.00 0.00 0.00 78 1008.9
20260506191604 67 279 4.3 10.4 0.00 0.00 0.00 78 1008.9
20260506191047 67 225 6.1 11.3 0.00 0.00 0.00 78 1008.8
20260506190547 66 230 5.2 12.2 0.00 0.00 0.00 79 1008.9
20260506190111 66 202 5.2 18.2 0.00 0.00 0.00 78 1008.9
20260506185549 66 211 4.3 18.2 0.00 0.00 0.00 79 1009.0
20260506185049 66 271 5.2 17.4 0.00 0.00 0.00 78 1008.9
20260506184556 66 210 3.5 14.8 0.00 0.00 0.00 79 1009.1
20260506184048 66 253 5.2 14.8 0.00 0.00 0.00 79 1009.0
20260506183549 66 247 6.1 14.8 0.00 0.00 0.00 79 1009.0
20260506183100 66 267 5.2 13.0 0.00 0.00 0.00 79 1009.2
20260506182547 66 197 7.0 13.9 0.00 0.00 0.00 80 1009.2
20260506182048 66 241 3.5 13.9 0.00 0.00 0.00 80 1009.1
20260506181606 66 300 4.3 11.3 0.00 0.00 0.00 80 1009.2
20260506181049 66 231 5.2 18.2 0.00 0.00 0.00 80 1009.2
20260506180549 66 192 3.5 18.2 0.00 0.00 0.00 80 1009.3
20260506180052 66 178 6.1 18.2 0.00 0.00 0.00 80 1009.3
20260506175549 66 229 2.6 14.8 0.00 0.00 0.00 81 1009.3
20260506175051 65 214 4.3 14.8 0.00 0.00 0.00 81 1009.2
20260506174556 65 211 3.5 7.8 0.00 0.00 0.00 82 1009.2
20260506174050 65 250 1.7 8.7 0.00 0.00 0.00 82 1009.3
20260506173548 65 302 1.7 8.7 0.00 0.00 0.00 82 1009.4
20260506173100 65 275 2.6 7.8 0.00 0.00 0.00 82 1009.4
20260506172545 65 272 3.5 7.8 0.00 0.00 0.00 82 1009.6
20260506172048 65 220 2.6 11.3 0.00 0.00 0.00 82 1009.6
20260506171557 65 224 2.6 12.2 0.00 0.00 0.00 82 1009.5
20260506171047 65 174 5.2 12.2 0.00 0.00 0.00 82 1009.6
20260506170549 65 227 5.2 13.9 0.00 0.00 0.00 82 1009.6
20260506170052 65 236 3.5 13.9 0.00 0.00 0.00 82 1009.8
20260506165548 65 217 5.2 13.9 0.00 0.00 0.00 82 1009.7
20260506165046 65 221 2.6 12.2 0.00 0.00 0.00 83 1009.9
20260506164558 65 123 2.6 12.2 0.00 0.00 0.00 83 1009.7
20260506164048 65 233 4.3 11.3 0.00 0.00 0.00 82 1009.8
20260506163548 65 229 3.5 11.3 0.00 0.00 0.00 82 1009.9
20260506163052 65 240 4.3 11.3 0.00 0.00 0.00 82 1010.1
20260506162546 65 235 4.3 11.3 0.00 0.00 0.00 82 1009.8
20260506162047 65 225 2.6 10.4 0.00 0.00 0.00 82 1009.8
20260506161553 65 242 4.3 12.2 0.00 0.00 0.00 81 1009.9
20260506161050 65 238 3.5 12.2 0.00 0.00 0.00 81 1010.1
20260506160545 65 138 3.5 12.2 0.00 0.00 0.00 80 1010.2
20260506160053 65 246 4.3 10.4 0.00 0.00 0.00 79 1010.5
20260506155546 66 205 3.5 10.4 0.00 0.00 0.00 78 1010.6
20260506155048 66 245 2.6 10.4 0.00 0.00 0.00 77 1010.7
20260506154612 66 215 4.3 13.9 0.00 0.00 0.00 76 1010.8
20260506154048 67 173 2.6 13.9 0.00 0.00 0.00 74 1010.7
20260506153549 67 257 5.2 13.9 0.00 0.00 0.00 73 1010.9
20260506153055 67 201 3.5 13.9 0.00 0.00 0.00 72 1010.7
20260506152549 67 207 5.2 13.0 0.00 0.00 0.00 71 1010.8
20260506152049 67 238 4.3 11.3 0.00 0.00 0.00 71 1010.7
20260506151555 67 223 3.5 11.3 0.00 0.00 0.00 71 1010.7
20260506151044 67 212 3.5 11.3 0.00 0.00 0.00 71 1010.6
20260506150548 68 222 4.3 8.7 0.00 0.00 0.00 70 1010.6
20260506150056 68 230 3.5 13.9 0.00 0.00 0.00 69 1010.7
20260506145547 68 208 5.2 13.9 0.00 0.00 0.00 69 1010.7
20260506145050 68 196 4.3 13.0 0.00 0.00 0.00 67 1010.6
20260506144602 68 275 4.3 13.0 0.00 0.00 0.00 66 1010.6
20260506144048 69 276 4.3 12.2 0.00 0.00 0.00 66 1010.7
20260506143548 69 278 4.3 13.9 0.00 0.00 0.00 65 1010.6
20260506143055 69 0 4.3 15.6 0.00 0.00 0.00 66 1010.7
20260506142551 69 258 6.1 15.6 0.00 0.00 0.00 65 1010.7
20260506142050 69 308 5.2 11.3 0.00 0.00 0.00 65 1010.7
20260506141550 69 242 3.5 13.0 0.00 0.00 0.00 65 1010.8
20260506141052 69 238 3.5 13.0 0.00 0.00 0.00 64 1010.7
20260506140550 69 213 5.2 13.0 0.00 0.00 0.00 64 1010.8
20260506140100 69 211 3.5 13.9 0.00 0.00 0.00 64 1010.7
20260506135547 69 286 4.3 13.9 0.00 0.00 0.00 64 1010.6
20260506135049 70 311 5.2 13.0 0.00 0.00 0.00 63 1010.5
20260506134558 70 222 5.2 13.0 0.00 0.00 0.00 63 1010.6
20260506134050 69 230 4.3 13.0 0.00 0.00 0.00 65 1010.3
20260506133551 69 286 5.2 12.2 0.00 0.00 0.00 65 1010.4
20260506133057 69 207 2.6 12.2 0.00 0.00 0.00 66 1010.4
20260506132550 68 219 5.2 12.2 0.00 0.00 0.00 66 1010.5
20260506132050 68 269 5.2 12.2 0.00 0.00 0.00 67 1010.6
20260506131552 68 179 3.5 11.3 0.00 0.00 0.00 67 1010.6
20260506131050 67 290 2.6 11.3 0.00 0.00 0.00 67 1010.6
20260506130550 67 223 3.5 9.6 0.00 0.00 0.00 67 1010.6
20260506130059 67 192 4.3 11.3 0.00 0.00 0.00 68 1010.7
20260506125550 67 205 2.6 13.0 0.00 0.00 0.00 68 1010.9
20260506125051 67 287 6.1 13.0 0.00 0.00 0.00 68 1010.9
20260506124557 67 292 2.6 13.9 0.00 0.00 0.00 68 1010.9
20260506124048 67 205 4.3 13.9 0.00 0.00 0.00 68 1011.0
20260506123552 68 284 4.3 12.2 0.00 0.00 0.00 68 1010.9
20260506123054 67 227 5.2 12.2 0.00 0.00 0.00 69 1010.9
20260506122550 67 229 3.5 14.8 0.00 0.00 0.00 70 1010.8
20260506122049 67 213 6.1 14.8 0.00 0.00 0.00 70 1010.8
20260506121553 67 179 6.1 14.8 0.00 0.00 0.00 70 1010.8
20260506121050 67 301 4.3 14.8 0.00 0.00 0.00 71 1010.7
20260506120549 67 186 3.5 10.4 0.00 0.00 0.00 72 1010.8
20260506120052 67 232 4.3 10.4 0.00 0.00 0.00 73 1010.7
20260506115550 67 227 3.5 8.7 0.00 0.00 0.00 73 1010.6
20260506115048 66 211 3.5 8.7 0.00 0.00 0.00 74 1010.8
20260506114558 66 188 2.6 8.7 0.00 0.00 0.00 75 1010.6
20260506114048 66 220 2.6 8.7 0.00 0.00 0.00 75 1010.6
20260506113550 66 219 3.5 9.6 0.00 0.00 0.00 75 1010.5
20260506113053 66 207 2.6 10.4 0.00 0.00 0.00 75 1010.6
20260506112549 66 169 4.3 10.4 0.00 0.00 0.00 75 1010.6
20260506112049 66 229 2.6 9.6 0.00 0.00 0.00 76 1010.6
20260506111602 65 181 2.6 9.6 0.00 0.00 0.00 76 1010.5
20260506111050 65 221 2.6 9.6 0.00 0.00 0.00 76 1010.6
20260506110550 65 215 1.7 8.7 0.00 0.00 0.00 76 1010.4
20260506110057 65 186 3.5 8.7 0.00 0.00 0.00 76 1010.3
20260506105552 65 217 2.6 8.7 0.00 0.00 0.00 77 1010.3
20260506105050 65 196 1.7 7.8 0.00 0.00 0.00 78 1010.4
20260506104558 65 187 3.5 7.8 0.00 0.00 0.00 78 1010.6
20260506104050 64 224 1.7 7.0 0.00 0.00 0.00 79 1010.6
20260506103550 64 171 2.6 7.0 0.00 0.00 0.00 79 1010.5
20260506103059 64 157 1.7 7.0 0.00 0.00 0.00 80 1010.6
20260506102550 64 198 1.7 7.0 0.00 0.00 0.00 81 1010.7
20260506102050 63 193 1.7 7.8 0.00 0.00 0.00 81 1010.5
20260506101553 63 211 2.6 7.8 0.00 0.00 0.00 81 1010.7
20260506101050 63 158 1.7 7.8 0.00 0.00 0.00 81 1010.7
20260506100551 63 210 0.0 6.1 0.00 0.00 0.00 81 1010.6
20260506100100 63 171 1.7 7.0 0.00 0.00 0.00 81 1010.6
20260506095550 63 185 0.9 8.7 0.00 0.00 0.00 81 1010.6
20260506095051 63 173 2.6 8.7 0.00 0.00 0.00 80 1010.5
20260506094555 63 190 0.0 7.8 0.00 0.00 0.00 80 1010.6
20260506094049 64 230 1.7 7.8 0.00 0.00 0.00 80 1010.8
20260506093547 63 194 0.9 7.8 0.00 0.00 0.00 80 1010.7
20260506093054 64 189 1.7 7.8 0.00 0.00 0.00 80 1010.5
20260506092550 64 215 0.0 6.1 0.00 0.00 0.00 79 1010.6
20260506092049 64 176 1.7 6.1 0.00 0.00 0.00 79 1010.6
20260506091601 64 211 1.7 6.1 0.00 0.00 0.00 79 1010.6
20260506091051 64 164 1.7 5.2 0.00 0.00 0.00 79 1010.4
20260506090551 64 180 0.9 5.2 0.00 0.00 0.00 79 1010.6
20260506090054 64 180 0.0 4.3 0.00 0.00 0.00 79 1010.7
20260506085550 64 194 0.9 5.2 0.00 0.00 0.00 79 1010.7
20260506085047 64 204 1.7 6.1 0.00 0.00 0.00 79 1010.6
20260506084556 64 159 0.9 6.1 0.00 0.00 0.00 78 1010.6
20260506084051 65 140 1.7 6.1 0.00 0.00 0.00 78 1010.7
20260506083550 65 194 1.7 6.1 0.00 0.00 0.00 78 1010.6
20260506083058 65 164 1.7 7.8 0.00 0.00 0.00 78 1010.6
20260506082550 65 177 0.9 7.8 0.00 0.00 0.00 78 1010.6
20260506082049 65 0 0.9 6.1 0.00 0.00 0.00 78 1010.7
20260506081559 65 200 1.7 6.1 0.00 0.00 0.00 78 1010.8
20260506081049 65 161 1.7 5.2 0.00 0.00 0.00 78 1010.9
20260506080550 65 188 1.7 5.2 0.00 0.00 0.00 77 1010.9
20260506073058 66 170 0.9 6.1 0.00 0.00 0.00 76 1010.9
20260506072550 66 139 1.7 6.1 0.00 0.00 0.00 75 1010.9
20260506072051 66 0 1.7 6.1 0.00 0.00 0.00 75 1010.9
20260506071551 66 191 0.9 7.8 0.00 0.00 0.00 75 1010.9
20260506071049 67 0 3.5 7.8 0.00 0.00 0.00 75 1011.0
20260506070550 67 252 0.9 7.0 0.00 0.00 0.00 74 1010.9
20260506062050 68 229 3.5 10.4 0.00 0.00 0.00 72 1011.2
20260506061557 68 182 4.3 9.6 0.00 0.00 0.00 72 1011.2
20260506061053 68 0 2.6 9.6 0.00 0.00 0.00 72 1011.0
20260506060550 68 182 1.7 9.6 0.00 0.00 0.00 72 1011.0
20260506051049 68 178 2.6 13.0 0.00 0.00 0.00 71 1011.3
20260506050547 68 200 2.6 13.0 0.00 0.00 0.00 70 1011.3
20260506045049 68 191 3.5 9.6 0.00 0.00 0.00 70 1011.3
20260506044638 68 157 3.5 11.3 0.00 0.00 0.00 69 1011.3
20260506044049 68 134 3.5 11.3 0.00 0.00 0.00 69 1011.3
20260506043547 68 161 3.5 9.6 0.00 0.00 0.00 69 1011.4
20260506043059 68 236 4.3 11.3 0.00 0.00 0.00 69 1011.3
20260506042550 68 167 1.7 11.3 0.00 0.00 0.00 69 1011.5
20260506042051 68 200 2.6 11.3 0.00 0.00 0.00 69 1011.4
20260506041559 68 205 4.3 10.4 0.00 0.00 0.00 69 1011.4
20260506041049 68 159 3.5 9.6 0.00 0.00 0.00 69 1011.4
20260506040546 68 238 1.7 9.6 0.00 0.00 0.00 68 1011.4
20260506040056 68 190 3.5 8.7 0.00 0.00 0.00 68 1011.4
20260506035550 68 133 2.6 11.3 0.00 0.00 0.00 68 1011.4
20260506035050 68 196 2.6 11.3 0.00 0.00 0.00 68 1011.2
20260506034555 68 182 2.6 7.8 0.00 0.00 0.00 68 1011.4
20260506034052 68 198 2.6 7.8 0.00 0.00 0.00 68 1011.4
20260506033550 68 189 1.7 9.6 0.00 0.00 0.00 68 1011.2
20260506033054 68 186 1.7 9.6 0.00 0.00 0.00 68 1011.2
20260506032547 68 190 2.6 9.6 0.00 0.00 0.00 67 1011.2
20260506032047 68 153 1.7 9.6 0.00 0.00 0.00 67 1011.2
20260506031555 68 209 3.5 9.6 0.00 0.00 0.00 67 1011.2
20260506031051 68 212 2.6 7.8 0.00 0.00 0.00 67 1011.2
20260506030552 68 171 2.6 11.3 0.00 0.00 0.00 66 1011.4
20260506030057 68 193 2.6 11.3 0.00 0.00 0.00 66 1011.3
20260506025551 68 181 3.5 9.6 0.00 0.00 0.00 66 1011.4
20260506025050 68 174 2.6 8.7 0.00 0.00 0.00 66 1011.4
20260506024559 68 163 2.6 8.7 0.00 0.00 0.00 65 1011.3
20260506024050 68 159 3.5 7.8 0.00 0.00 0.00 65 1011.5
20260506023550 69 181 2.6 12.2 0.00 0.00 0.00 65 1011.5
20260506023101 69 192 3.5 12.2 0.00 0.00 0.00 65 1011.5
20260506022549 69 165 2.6 6.1 0.00 0.00 0.00 64 1011.5
20260506022049 69 189 1.7 6.1 0.00 0.00 0.00 64 1011.3
20260506021606 69 171 1.7 8.7 0.00 0.00 0.00 63 1011.4
20260506021050 69 156 2.6 8.7 0.00 0.00 0.00 63 1011.3
20260506020550 69 168 2.6 8.7 0.00 0.00 0.00 62 1011.3
20260506020056 70 173 2.6 7.8 0.00 0.00 0.00 61 1011.2
20260506015550 70 0 2.6 7.8 0.00 0.00 0.00 61 1011.1
20260506015050 70 218 1.7 7.0 0.00 0.00 0.00 60 1011.2
20260506014554 71 185 3.5 8.7 0.00 0.00 0.00 59 1011.2
20260506014049 71 167 1.7 8.7 0.00 0.00 0.00 57 1011.2
20260506013549 72 248 2.6 8.7 0.00 0.00 0.00 56 1011.0
20260506013104 72 128 3.5 8.7 0.00 0.00 0.00 55 1010.9
20260506012550 73 185 2.6 9.6 0.00 0.00 0.00 53 1010.8
20260506012050 73 171 3.5 9.6 0.00 0.00 0.00 52 1010.8
20260506011557 73 212 2.6 8.7 0.00 0.00 0.00 52 1010.7
20260506011051 73 184 2.6 8.7 0.00 0.00 0.00 52 1010.8
20260506010550 73 177 3.5 8.7 0.00 0.00 0.00 51 1010.7
20260506010112 73 178 2.6 8.7 0.00 0.00 0.00 51 1010.5
20260506005547 73 243 3.5 8.7 0.00 0.00 0.00 50 1010.7
20260506005050 73 236 2.6 8.7 0.00 0.00 0.00 50 1010.6
20260506004554 74 165 2.6 8.7 0.00 0.00 0.00 50 1010.6
20260506004048 74 181 2.6 7.8 0.00 0.00 0.00 50 1010.4
20260506003550 74 216 2.6 11.3 0.00 0.00 0.00 50 1010.5
20260506003057 74 238 3.5 11.3 0.00 0.00 0.00 49 1010.6
20260506002549 74 143 3.5 12.2 0.00 0.00 0.00 48 1010.4
20260506002049 74 207 3.5 12.2 0.00 0.00 0.00 48 1010.4
20260506001551 74 168 4.3 9.6 0.00 0.00 0.00 48 1010.1
20260506001049 74 205 3.5 8.7 0.00 0.00 0.00 48 1010.1
20260506000551 74 225 3.5 10.4 0.00 0.00 0.00 47 1010.1
20260506000056 74 191 3.5 10.4 0.00 0.00 0.00 48 1010.0
20260505235549 75 192 1.7 10.4 0.00 0.00 0.00 47 1010.0
20260505235052 75 207 4.3 16.5 0.00 0.00 0.00 46 1010.1
20260505234607 76 190 4.3 17.4 0.00 0.00 0.00 45 1010.0
20260505234048 76 233 6.1 17.4 0.00 0.00 0.00 45 1010.0
20260505233549 76 191 3.5 12.2 0.00 0.00 0.00 45 1010.0
20260505233056 76 194 4.3 11.3 0.00 0.00 0.00 45 1010.0
20260505232550 76 191 3.5 13.0 0.00 0.00 0.00 44 1009.9
20260505232050 77 194 4.3 13.0 0.00 0.00 0.00 43 1010.0
20260505231556 77 164 3.5 13.0 0.00 0.00 0.00 43 1010.0
20260505231047 77 222 3.5 11.3 0.00 0.00 0.00 44 1009.9
20260505230549 77 203 3.5 11.3 0.00 0.00 0.00 44 1009.9
20260505230053 77 254 3.5 13.9 0.00 0.00 0.00 44 1009.7
20260505225547 78 196 4.3 13.9 0.00 0.00 0.00 44 1009.9
20260505225048 78 205 4.3 11.3 0.00 0.00 0.00 43 1009.7
20260505224558 79 154 4.3 13.0 0.00 0.00 0.00 42 1009.8
20260505224049 79 190 5.2 13.0 0.00 0.00 0.00 41 1009.8
20260505223549 80 205 5.2 11.3 0.00 0.00 0.00 40 1009.8
20260505223059 80 168 2.6 16.5 0.00 0.00 0.00 41 1009.9
20260505222548 80 231 5.2 16.5 0.00 0.00 0.00 40 1009.8